Estación de Quillota

Ultimos registro cada 15 minutos 45
Estación Fecha / Hora Temperatura Humedad Lluvia Velocidad Dirección Radiación Presion
45 Quillota 07-05-2026 11:00 15,6 76 0 0,9 340 297 1023,6
44 Quillota 07-05-2026 10:45 15,3 77 0 0,4 338 285 1023,9
43 Quillota 07-05-2026 10:30 15,3 78 0 0,4 335 269 1024,2
42 Quillota 07-05-2026 10:15 14,9 80 0 0 348 250 1024,2
41 Quillota 07-05-2026 10:00 14,4 83 0 0 330 227 1024,2
40 Quillota 07-05-2026 09:45 13,6 87 0 0,4 45 206 1024,2
39 Quillota 07-05-2026 09:30 12,7 89 0 0 350 183 1024,2
38 Quillota 07-05-2026 09:15 12,1 92 0 0,9 342 174 1023,8
37 Quillota 07-05-2026 09:00 11,3 93 0 0,4 273 149 1024
36 Quillota 07-05-2026 08:45 10,6 94 0 0 102 120 1023,7
35 Quillota 07-05-2026 08:30 9,6 94 0 0,4 185 90 1023,5
34 Quillota 07-05-2026 08:15 8,2 92 0 0 19 56 1023,5
33 Quillota 07-05-2026 08:00 8,4 91 0 0 19 11 1023,3
32 Quillota 07-05-2026 07:45 8,8 90 0 0,4 19 7 1023,2
31 Quillota 07-05-2026 07:30 9,4 91 0 0 185 0 1023,3
30 Quillota 07-05-2026 07:15 10,3 91 0 0 146 0 1023,1
29 Quillota 07-05-2026 07:00 10,7 91 0 0 77 0 1023
28 Quillota 07-05-2026 06:45 11,1 92 0 0,4 173 0 1023
27 Quillota 07-05-2026 06:30 11,1 92 0 0,4 159 0 1022,9
26 Quillota 07-05-2026 06:15 11,1 92 0 0 159 0 1022,6
25 Quillota 07-05-2026 06:00 11,1 92 0 0 159 0 1022,6
24 Quillota 07-05-2026 05:45 11,2 92 0 0,4 158 0 1022,7
23 Quillota 07-05-2026 05:30 11,2 92 0 0,4 159 0 1022,5
22 Quillota 07-05-2026 05:15 11,1 92 0 0 158 0 1022,4
21 Quillota 07-05-2026 05:00 11,1 92 0 0 159 0 1022,2
20 Quillota 07-05-2026 04:45 11,2 92 0 0 159 0 1022,1
19 Quillota 07-05-2026 04:30 11,3 92 0 0 160 0 1022,1
18 Quillota 07-05-2026 04:15 11,3 92 0 0,9 157 0 1022
17 Quillota 07-05-2026 04:00 11,3 92 0 0,4 34 0 1022
16 Quillota 07-05-2026 03:45 11,3 92 0 0 34 0 1022
15 Quillota 07-05-2026 03:30 11,3 91 0 0 279 0 1021,9
14 Quillota 07-05-2026 03:15 11,4 91 0 0 279 0 1022
13 Quillota 07-05-2026 03:00 11,3 91 0 0,4 279 0 1022,1
12 Quillota 07-05-2026 02:45 11,3 91 0 0 279 0 1022,2
11 Quillota 07-05-2026 02:30 11,3 91 0 0 279 0 1022,1
10 Quillota 07-05-2026 02:15 11,3 91 0 0,9 276 0 1022
9 Quillota 07-05-2026 02:00 11,8 92 0 0 156 0 1022
8 Quillota 07-05-2026 01:45 11,9 92 0 0 156 0 1021,7
7 Quillota 07-05-2026 01:30 11,9 92 0 0 65 0 1021,5
6 Quillota 07-05-2026 01:15 11,8 92 0 0 65 0 1021,5
5 Quillota 07-05-2026 01:00 11,9 92 0 0,4 50 0 1021,6
4 Quillota 07-05-2026 00:45 11,9 92 0 0,4 271 0 1021,7
3 Quillota 07-05-2026 00:30 11,9 92 0 0 270 0 1021,5
2 Quillota 07-05-2026 00:15 12,2 93 0 0,9 269 0 1021,4
1 Quillota 07-05-2026 00:00 12,7 93 0 0,4 234 0 1021,2